RH
35 57 95 93 93 93 93 93 92 91 91 90 89 88 88 87 87 87 85 84 83 81 79 80 78 75 73 74 77 81 82 84 86 85 83 80 76 76 76 79 71 58 80
40 52 96 95 94 92 92 93 92 90 90 89 88 88 88 87 86 84 82 83 83 82 83 80 77 76 74 78 82 84 87 87 86 84 81 77 76 75 75 79 76 68 78
40 56 60 95 94 90 84 90 91 89 88 88 88 88 87 85 85 84 85 84 84 80 82 87 76 75 76 82 87 88 87 86 85 82 76 56 64 78 78 80 79 75 74
34 42 54 96 94 91 90 90 90 88 87 88 88 87 86 84 84 84 85 84 84 83 80 77 77 74 81 88 88 87 86 86 85 83 49 57 57 77 77 75 73 72 71
37 46 71 94 93 92 92 90 90 90 90 89 88 85 84 83 83 84 84 83 84 83 79 78 76 81 90 90 89 87 86 85 85 70 37 51 60 71 74 73 71 69 70
82 67 82 93 92 92 90 92 91 91 91 91 88 85 83 83 84 83 83 85 85 83 82 79 81 90 90 89 88 85 83 82 84 30 44 62 63 73 73 74 71 68 72
80 79 60 92 90 87 85 84 88 91 90 90 88 86 84 83 86 85 84 85 85 84 83 83 90 90 88 87 85 81 82 80 42 35 55 67 69 72 72 71 69 68 69
77 73 74 80 84 86 84 85 89 92 92 90 88 86 84 83 83 83 84 84 85 86 87 90 90 89 87 85 82 82 78 74 36 42 63 65 75 73 71 69 66 65 67
64 70 77 70 74 82 88 90 92 91 93 92 90 87 85 83 84 90 92 89 84 82 91 91 90 89 87 85 81 79 77 73 36 42 54 64 77 73 71 66 66 68 67
56 62 64 67 65 68 71 89 90 91 91 93 92 90 88 86 88 91 94 93 90 82 90 92 91 90 89 86 82 79 75 76 33 39 45 64 76 70 70 65 64 67 64
43 53 58 60 65 73 63 67 84 91 91 92 89 92 86 72 82 88 93 95 93 89 91 92 92 91 89 86 82 79 80 34 31 32 47 78 71 70 70 65 63 68 65
55 47 50 54 60 64 56 65 72 64 63 60 56 69 67 80 83 86 96 97 96 98 93 93 92 91 76 54 54 70 42 33 32 36 48 75 71 67 68 63 63 69 66
68 45 49 59 60 62 65 62 61 78 78 78 65 71 75 87 88 92 97 98 97 97 85 76 74 58 50 46 46 45 42 37 33 43 60 75 68 68 65 64 69 68 67
33 34 40 43 52 59 66 69 69 67 79 70 78 74 89 87 93 96 97 97 97 97 87 65 57 53 52 43 48 45 40 50 40 46 59 73 71 64 64 66 67 68 66
29 34 41 42 50 51 59 63 88 75 66 60 72 75 88 90 89 95 98 97 98 95 91 76 56 45 58 64 46 56 56 57 44 42 48 75 72 68 67 67 66 68 69
28 31 40 40 50 51 56 67 68 71 84 80 77 78 78 91 89 94 97 97 98 95 95 73 52 50 55 69 65 65 62 57 50 47 46 55 76 68 68 67 65 67 66
25 31 38 41 48 56 57 62 64 62 72 85 66 72 74 88 91 90 96 98 95 98 94 90 68 77 79 60 68 66 62 60 54 44 43 47 56 77 78 74 71 69 67
24 32 35 36 46 56 58 56 54 59 73 87 88 84 77 86 89 93 97 95 94 97 97 95 85 71 76 71 72 63 62 61 54 46 40 43 44 46 71 78 73 74 65
23 32 34 42 46 55 56 53 56 65 75 92 90 80 83 88 90 94 96 97 98 98 96 97 94 81 81 77 60 59 58 61 56 41 41 41 44 44 45 74 76 73 72
24 31 34 39 48 54 52 52 53 57 70 87 94 93 83 89 94 95 95 97 97 98 98 99 97 93 87 79 64 68 73 68 63 51 43 37 39 43 43 52 54 58 77
26 32 35 40 48 49 52 58 61 65 62 76 88 90 86 88 96 97 98 96 97 98 96 96 98 98 98 94 89 80 74 79 70 57 44 42 40 39 42 48 46 44 57
26 33 35 39 44 47 52 59 64 66 66 70 83 89 90 87 91 94 96 97 96 97 96 96 95 98 98 97 95 92 98 89 73 68 57 51 52 38 39 45 45 42 46
27 31 34 38 42 45 54 58 64 64 66 76 84 86 88 87 86 91 95 95 96 94 96 95 96 95 97 98 95 94 98 96 78 70 72 61 62 46 40 41 43 40 43
26 30 33 37 40 43 50 59 71 78 85 77 79 83 84 84 89 83 90 93 93 96 96 96 94 95 93 96 98 94 88 85 92 94 69 71 65 59 53 42 44 44 43
24 28 35 38 38 44 49 56 62 71 73 73 74 84 84 84 86 84 89 96 95 96 96 95 95 97 96 94 94 95 96 94 90 87 72 73 69 61 58 53 46 49 47
21 30 34 39 39 42 47 54 63 68 72 78 80 86 87 85 87 90 84 93 96 96 97 98 96 96 98 96 92 92 91 92 92 91 85 71 70 62 62 62 60 50 49
Wind_Speed
16 16 14 13 14 13 13 12 12 12 15 16 16 16 15 14 14 14 16 16 18 18 18 17 16 17 17 17 16 17 19 18 16 17 17 18 19 18 18 17 18 19 19
18 14 11 13 13 14 13 13 11 12 14 16 16 15 14 13 13 12 15 15 18 19 16 14 17 18 18 17 15 16 16 17 17 18 19 20 18 17 18 19 19 18 18
16 12 12 10 10 11 11 11 12 12 12 15 15 14 14 13 12 12 15 17 15 16 18 17 19 19 17 16 14 16 17 17 18 18 17 13 15 19 21 20 18 19 18
10 10 13 10 9 9 9 9 11 12 12 13 13 13 13 11 10 11 14 16 17 18 21 21 20 19 17 13 15 16 15 15 16 18 13 11 14 17 18 18 18 18 18
8 18 16 10 9 9 8 8 8 9 9 10 11 11 12 12 10 11 14 17 18 19 20 19 21 19 15 15 14 13 12 11 12 13 16 13 11 15 17 17 16 15 16
24 11 15 10 8 7 7 8 7 7 8 8 8 10 11 11 10 11 13 17 17 17 18 19 19 17 16 14 12 10 9 11 11 8 14 16 13 16 16 18 18 17 16
19 22 12 9 8 6 3 4 6 7 8 9 8 9 10 10 9 11 12 19 17 17 18 19 16 16 15 14 12 10 8 4 10 15 12 12 12 16 15 16 17 16 17
18 18 17 25 8 6 4 1 2 4 6 8 10 9 10 11 10 11 10 13 14 17 17 18 15 15 14 13 11 5 2 9 5 17 11 10 15 15 15 17 16 16 17
18 19 17 15 18 20 2 3 2 3 4 6 8 10 10 11 12 15 12 6 12 16 17 16 15 14 13 11 9 5 3 9 4 11 7 8 15 17 16 16 16 17 17
17 17 21 18 16 16 14 6 5 5 4 3 6 8 8 11 17 17 11 11 9 15 18 16 14 13 13 11 9 5 3 10 9 10 9 8 15 16 16 15 16 16 18
15 18 16 16 15 16 15 10 6 8 6 5 5 8 10 10 13 15 11 10 13 15 18 16 14 14 13 10 9 7 8 6 8 5 10 12 13 16 17 16 16 16 16
21 15 16 15 13 14 12 12 11 5 5 7 9 10 9 11 11 11 10 9 11 11 18 17 16 15 14 9 7 8 7 4 4 7 10 10 14 16 17 15 16 16 16
11 14 14 14 12 12 10 10 6 5 4 3 6 7 9 8 8 8 6 6 7 11 9 14 13 11 14 10 9 8 9 5 4 8 12 10 13 16 16 16 16 16 15
14 13 16 15 16 13 9 7 9 8 4 3 4 7 7 6 7 7 6 7 7 7 12 13 11 13 11 12 12 12 6 3 5 8 10 10 12 15 16 17 16 16 14
15 16 18 19 17 15 13 8 6 9 8 4 3 5 7 8 8 8 6 6 6 9 10 11 11 12 6 3 11 3 5 2 6 8 8 10 11 14 16 16 17 16 15
16 17 17 17 15 16 13 13 11 8 9 9 2 4 9 8 9 8 7 7 5 8 9 10 11 10 10 4 3 3 4 4 5 9 10 9 10 11 15 16 15 16 15
15 17 17 16 16 17 16 13 10 10 9 9 6 5 7 8 10 11 8 8 10 7 10 8 9 7 7 8 7 5 4 4 6 9 11 10 10 10 12 13 15 15 15
17 18 18 16 18 18 16 12 10 10 10 10 4 4 7 9 11 9 7 9 9 8 8 6 8 10 7 9 8 7 5 4 7 10 11 10 10 10 8 12 13 14 15
17 17 19 19 19 19 16 13 12 11 8 10 10 5 5 5 11 10 8 6 8 7 8 5 6 9 7 5 9 9 7 5 7 8 11 11 12 12 10 12 12 11 13
18 18 18 16 19 18 14 13 11 10 8 7 8 8 7 6 8 9 8 7 8 8 8 6 7 6 7 8 7 6 4 4 4 6 9 9 11 12 11 14 10 10 12
18 19 19 18 19 15 13 14 13 12 13 8 8 12 11 7 9 7 6 10 9 8 10 11 6 8 4 3 4 5 3 4 1 4 8 7 10 10 11 12 10 9 10
18 18 18 19 18 14 12 12 11 12 9 11 9 12 16 8 11 9 8 8 12 10 11 12 13 6 3 6 4 4 2 2 2 4 6 7 10 9 10 12 13 13 12
19 19 18 19 18 16 16 12 12 11 11 9 10 10 13 14 15 11 11 11 11 12 12 14 12 13 8 8 8 5 4 4 6 5 6 5 9 10 10 12 13 12 12
18 18 18 18 18 16 17 13 17 11 12 10 10 10 12 14 17 12 12 12 13 9 13 12 12 12 12 11 8 5 2 6 6 5 7 6 6 9 10 10 11 12 12
18 17 17 18 18 18 18 16 12 14 11 10 11 14 13 13 13 15 11 11 11 10 12 14 14 13 11 10 10 10 6 4 4 4 8 10 7 9 8 9 10 11 13
18 18 17 18 17 18 17 17 16 16 16 12 13 11 10 10 11 14 12 10 11 11 9 9 13 13 8 10 12 11 12 9 8 6 7 12 12 12 10 9 9 10 11
Wind_Direction
95 121 115 117 119 118 120 121 128 135 134 131 127 122 122 124 121 124 129 135 133 125 119 123 123 122 119 117 112 102 97 97 98 100 100 101 103 105 109 112 105 95 91
99 116 103 112 122 128 129 127 132 138 138 132 128 127 129 131 131 134 133 134 120 114 110 128 133 129 127 123 120 112 107 106 106 106 105 100 98 96 87 80 87 93 91
85 105 116 93 112 123 137 131 138 138 139 133 132 132 133 137 141 139 134 132 134 137 145 163 139 129 130 128 124 116 116 119 126 130 134 108 98 95 93 92 95 94 96
87 126 107 82 97 113 124 134 138 144 143 138 139 140 140 143 148 150 145 146 152 152 151 148 134 136 134 131 122 121 128 143 151 164 106 114 108 105 102 102 102 102 99
33 82 90 81 88 106 114 125 138 145 142 145 149 150 147 149 148 146 145 145 146 147 147 143 137 138 130 124 120 131 152 168 184 206 129 123 109 109 105 109 115 104 89
10 51 77 71 75 91 134 139 143 146 154 153 164 159 154 156 149 150 151 140 148 148 145 140 142 135 125 122 127 144 167 188 196 132 86 83 102 106 98 90 95 99 102
8 9 51 65 65 73 85 134 166 175 172 171 179 173 163 164 158 157 155 149 153 145 145 134 136 131 130 130 138 162 202 294 263 99 99 108 110 111 109 108 109 108 103
10 8 15 5 9 76 45 57 149 185 192 185 187 191 175 172 171 159 143 148 155 145 136 129 136 134 132 135 146 159 152 257 168 114 121 118 116 117 115 112 112 115 115
22 12 357 3 5 358 188 151 286 255 208 203 200 199 186 168 137 119 133 173 185 145 130 132 137 135 130 133 134 126 304 328 291 94 105 108 123 119 119 118 120 118 114
25 17 357 353 355 356 348 215 185 236 250 212 207 211 189 151 136 134 152 172 184 162 135 137 135 129 128 131 127 123 265 279 110 144 130 113 123 127 124 127 124 122 123
23 20 352 349 353 348 339 350 224 210 221 196 188 171 165 172 154 149 147 157 180 178 141 138 133 127 124 122 128 173 234 213 148 146 103 130 131 132 130 131 129 126 125
14 3 342 349 352 353 336 336 322 309 263 227 205 175 184 168 159 154 152 171 190 188 142 137 134 136 161 158 167 210 222 140 162 105 103 139 145 135 131 136 133 130 125
22 356 335 343 351 351 344 327 329 322 296 281 233 197 176 160 156 158 159 178 179 187 159 153 152 172 194 171 166 200 219 158 136 89 119 156 146 139 138 143 132 135 134
358 352 348 353 349 349 340 327 323 311 305 286 267 201 169 155 160 167 168 185 184 181 181 175 177 187 201 189 163 211 150 236 121 106 132 149 147 148 150 147 141 137 136
355 354 352 355 353 343 336 332 309 315 299 266 265 224 179 165 168 164 169 202 197 189 194 183 182 191 168 257 178 137 134 30 110 122 141 156 154 152 150 150 147 141 143
350 2 355 350 352 340 338 340 326 310 311 303 236 251 196 177 170 171 178 205 215 206 202 195 184 168 179 165 117 156 147 166 157 134 133 159 153 160 152 155 151 155 154
351 355 351 350 352 352 340 343 322 309 306 302 298 273 238 181 176 175 189 183 205 221 208 252 160 142 177 163 171 173 158 180 149 135 146 151 160 164 148 161 160 159 159
357 353 350 353 353 353 342 334 330 322 331 310 273 273 266 190 178 180 182 200 192 187 195 223 152 170 170 182 168 178 169 178 169 151 163 162 166 167 169 154 163 168 170
5 356 350 352 356 351 341 342 338 325 340 339 317 251 240 206 189 175 184 182 163 185 194 178 162 169 164 189 183 176 175 169 184 174 155 173 176 163 175 162 168 168 167
5 2 355 356 353 352 346 343 348 335 337 328 323 309 241 196 189 181 185 187 178 176 184 147 159 172 177 179 192 171 171 155 209 177 166 181 175 172 179 168 175 181 177
4 4 358 359 355 355 354 344 348 338 328 345 330 309 273 203 186 181 183 177 182 176 174 175 159 166 165 187 141 132 71 353 210 179 176 193 170 184 178 172 187 185 183
4 3 360 1 355 356 356 342 340 333 327 324 353 333 339 243 194 190 172 186 185 187 189 195 178 176 165 179 153 107 108 346 279 266 199 200 170 190 189 181 196 194 178
3 2 358 359 358 357 358 346 343 342 342 342 343 336 334 321 308 201 184 184 195 193 191 193 183 181 181 184 177 142 149 189 172 207 239 219 169 204 193 193 197 200 187
359 358 358 357 356 359 354 354 349 346 342 334 330 328 327 317 325 239 195 185 190 205 195 194 198 191 183 191 185 189 250 150 182 160 215 218 191 217 201 194 196 205 208
353 354 356 355 354 360 355 354 349 344 341 336 333 334 333 326 316 305 212 187 195 199 204 193 188 209 195 186 197 189 184 220 220 149 185 200 209 203 211 217 201 204 206
353 350 355 354 353 358 358 357 346 345 341 343 343 337 335 331 326 332 274 207 197 196 193 193 201 204 179 206 201 193 194 191 188 187 243 186 199 202 205 201 227 204 203